{"data":{"norad_id":66559,"epoch":"2026-05-25T02:13:40.825632Z","epoch_age_seconds":71031,"freshness":"FRESH","line1":"1 66559U 25268C   26145.09283363  .00015387  00000+0  56753-3 0  9998","line2":"2 66559  43.0024 275.6636 0001254 257.3539 102.7172 15.27579251 29642","mean_motion":15.27579251,"eccentricity":0.0001254,"inclination_deg":43.0024,"raan_deg":275.6636,"arg_perigee_deg":257.3539,"mean_anomaly_deg":102.7172,"bstar":0.00056753,"rev_number":2964,"period_min":94.26679493436,"perigee_km":482.19094579833,"apogee_km":483.91173183371,"semimajor_km":6861.188338816,"source":"CELESTRAK","updated_at":"2026-05-25T13:38:21.256326Z"}}